TimePST,TemperatureF,Dew PointF,Humidity,Sea Level PressureIn,VisibilityMPH,Wind Direction,Wind SpeedMPH,Gust SpeedMPH,PrecipitationIn,Events,Conditions,WindDirDegrees,DateUTC
12:58 AM,33.3,33.3,100,30.16,10.0,SW,10.4,-,N/A,,Overcast,220,2013-01-30 08:58:00
1:08 AM,32.0,32.0,100,30.08,10.0,SW,9.2,-,N/A,,Overcast,220,2013-01-30 09:08:00
1:18 AM,32.0,32.0,100,30.09,10.0,SW,9.2,-,N/A,,Overcast,220,2013-01-30 09:18:00
1:38 AM,32.0,32.0,100,30.08,10.0,SSW,10.4,-,N/A,,Overcast,210,2013-01-30 09:38:00
1:58 AM,32.9,32.9,100,30.17,10.0,SSW,10.4,-,N/A,,Overcast,210,2013-01-30 09:58:00
1:59 AM,32.0,32.0,100,30.09,10.0,SSW,11.5,-,N/A,,Overcast,210,2013-01-30 09:59:00
2:04 AM,32.0,32.0,100,30.08,10.0,SSW,12.7,-,N/A,,Overcast,210,2013-01-30 10:04:00
2:07 AM,32.0,32.0,100,30.08,10.0,SSW,12.7,-,N/A,,Overcast,210,2013-01-30 10:07:00
2:17 AM,32.0,32.0,100,30.08,10.0,SSW,12.7,-,N/A,,Mostly Cloudy,210,2013-01-30 10:17:00
2:37 AM,32.0,32.0,100,30.07,10.0,SSW,12.7,-,N/A,,Mostly Cloudy,200,2013-01-30 10:37:00
2:40 AM,32.0,32.0,100,30.07,10.0,SSW,12.7,-,N/A,,Mostly Cloudy,200,2013-01-30 10:40:00
2:44 AM,32.0,32.0,100,30.07,10.0,SSW,12.7,-,N/A,,Mostly Cloudy,200,2013-01-30 10:44:00
2:47 AM,32.0,32.0,100,30.08,10.0,SSW,10.4,-,N/A,,Mostly Cloudy,210,2013-01-30 10:47:00
2:58 AM,32.5,32.5,100,30.16,10.0,SW,10.4,-,0.00,,Overcast,220,2013-01-30 10:58:00
3:08 AM,32.0,32.0,100,30.08,10.0,SSW,10.4,-,N/A,,Overcast,210,2013-01-30 11:08:00
3:33 AM,32.0,32.0,100,30.08,10.0,SW,9.2,-,N/A,,Mostly Cloudy,220,2013-01-30 11:33:00
3:36 AM,32.0,32.0,100,30.08,10.0,SW,9.2,-,N/A,,Mostly Cloudy,230,2013-01-30 11:36:00
3:51 AM,32.0,32.0,100,30.07,10.0,SSW,13.8,-,N/A,,Mostly Cloudy,210,2013-01-30 11:51:00
3:58 AM,31.8,31.8,100,30.15,10.0,SW,10.4,-,0.00,,Overcast,220,2013-01-30 11:58:00
4:02 AM,32.0,32.0,100,30.07,10.0,SW,10.4,-,N/A,,Overcast,220,2013-01-30 12:02:00
4:18 AM,32.0,32.0,100,30.07,10.0,SW,6.9,-,N/A,,Overcast,220,2013-01-30 12:18:00
4:19 AM,32.0,32.0,100,30.07,10.0,SW,6.9,-,N/A,,Overcast,220,2013-01-30 12:19:00
4:21 AM,32.0,32.0,100,30.07,10.0,SW,8.1,-,N/A,,Overcast,220,2013-01-30 12:21:00
4:58 AM,30.9,30.9,100,30.15,10.0,SSW,5.8,-,0.00,,Overcast,200,2013-01-30 12:58:00
4:59 AM,32.0,32.0,100,30.07,10.0,SSW,6.9,-,N/A,,Overcast,210,2013-01-30 12:59:00
5:04 AM,30.2,30.2,100,30.07,10.0,SSW,9.2,-,N/A,,Overcast,200,2013-01-30 13:04:00
5:09 AM,30.2,30.2,100,30.07,10.0,SSW,8.1,-,N/A,,Overcast,210,2013-01-30 13:09:00
5:29 AM,30.2,30.2,100,30.07,10.0,SW,8.1,-,N/A,,Scattered Clouds,220,2013-01-30 13:29:00
5:44 AM,30.2,30.2,100,30.08,10.0,WSW,4.6,-,N/A,,Mostly Cloudy,250,2013-01-30 13:44:00
5:58 AM,29.3,29.3,100,30.17,10.0,WSW,5.8,-,0.00,,Mostly Cloudy,250,2013-01-30 13:58:00
6:17 AM,28.4,28.4,100,30.08,10.0,SW,8.1,-,N/A,,Scattered Clouds,220,2013-01-30 14:17:00
6:41 AM,28.4,28.4,100,30.08,10.0,SW,8.1,-,N/A,,Partly Cloudy,230,2013-01-30 14:41:00
6:49 AM,28.4,28.4,100,30.08,10.0,SW,5.8,-,N/A,,Partly Cloudy,230,2013-01-30 14:49:00
6:58 AM,28.4,28.4,100,30.17,10.0,SW,4.6,-,0.00,,Partly Cloudy,230,2013-01-30 14:58:00
7:03 AM,28.4,28.4,100,30.08,10.0,SW,4.6,-,N/A,,Mostly Cloudy,220,2013-01-30 15:03:00
7:13 AM,30.2,30.2,100,30.08,10.0,SSW,6.9,-,N/A,,Mostly Cloudy,200,2013-01-30 15:13:00
7:23 AM,30.2,30.2,100,30.08,10.0,SW,10.4,-,N/A,,Overcast,220,2013-01-30 15:23:00
7:25 AM,30.2,30.2,100,30.08,10.0,SW,9.2,-,N/A,,Overcast,220,2013-01-30 15:25:00
7:58 AM,30.9,30.9,100,30.18,10.0,SW,3.5,-,0.00,,Overcast,220,2013-01-30 15:58:00
8:58 AM,31.5,31.5,100,30.20,10.0,SW,8.1,-,N/A,,Overcast,230,2013-01-30 16:58:00
9:05 AM,32.0,32.0,100,30.12,10.0,SW,8.1,-,N/A,,Overcast,230,2013-01-30 17:05:00
9:09 AM,32.0,32.0,100,30.12,10.0,WSW,4.6,-,N/A,,Overcast,240,2013-01-30 17:09:00
9:48 AM,32.0,32.0,100,30.13,7.0,SSW,11.5,-,N/A,,Overcast,210,2013-01-30 17:48:00
9:58 AM,32.5,32.5,100,30.21,4.0,SSW,9.2,-,0.00,,Overcast,210,2013-01-30 17:58:00
9:59 AM,32.0,32.0,100,30.13,4.0,SSW,6.9,-,N/A,,Overcast,210,2013-01-30 17:59:00
10:09 AM,32.0,32.0,100,30.13,2.5,SSW,10.4,-,N/A,,Overcast,210,2013-01-30 18:09:00
10:11 AM,32.0,32.0,100,30.13,2.5,SSW,11.5,-,N/A,,Overcast,210,2013-01-30 18:11:00
10:31 AM,32.0,32.0,100,30.14,4.0,SSW,8.1,-,N/A,,Overcast,210,2013-01-30 18:31:00
10:48 AM,32.0,32.0,100,30.14,10.0,SSW,9.2,-,N/A,,Overcast,210,2013-01-30 18:48:00
10:58 AM,33.3,33.3,100,30.22,10.0,SW,9.2,-,0.00,,Overcast,220,2013-01-30 18:58:00
11:09 AM,33.8,33.8,100,30.14,10.0,SSW,9.2,-,N/A,,Overcast,210,2013-01-30 19:09:00
11:15 AM,33.8,33.8,100,30.14,10.0,SSW,9.2,-,N/A,,Light Drizzle,210,2013-01-30 19:15:00
11:24 AM,32.0,32.0,100,30.14,10.0,SSW,6.9,-,N/A,,Overcast,210,2013-01-30 19:24:00
11:58 AM,34.2,34.2,100,30.21,10.0,SSW,8.1,-,0.00,,Overcast,200,2013-01-30 19:58:00
12:03 PM,33.8,33.8,100,30.14,10.0,SSW,9.2,-,N/A,,Overcast,200,2013-01-30 20:03:00
12:23 PM,35.6,35.6,100,30.14,10.0,South,6.9,-,N/A,,Overcast,190,2013-01-30 20:23:00
12:28 PM,35.6,35.6,100,30.14,10.0,SSW,5.8,-,N/A,,Overcast,200,2013-01-30 20:28:00
12:43 PM,37.4,37.4,100,30.14,10.0,SSW,8.1,-,N/A,,Scattered Clouds,210,2013-01-30 20:43:00
12:45 PM,37.4,37.4,100,30.14,10.0,SSW,10.4,-,N/A,,Scattered Clouds,210,2013-01-30 20:45:00
12:58 PM,36.9,36.9,100,30.20,10.0,SW,11.5,-,0.00,,Partly Cloudy,220,2013-01-30 20:58:00
1:58 PM,37.0,37.0,100,30.21,10.0,WSW,10.4,-,0.00,,Light Drizzle,240,2013-01-30 21:58:00
2:12 PM,37.4,37.4,100,30.14,10.0,WSW,6.9,-,N/A,,Clear,240,2013-01-30 22:12:00
2:58 PM,37.8,37.8,100,30.22,10.0,WSW,6.9,-,0.00,,Clear,250,2013-01-30 22:58:00
3:58 PM,38.7,38.7,100,30.23,10.0,WSW,5.8,-,N/A,,Clear,240,2013-01-30 23:58:00
4:16 PM,37.4,37.4,100,30.16,10.0,Calm,Calm,-,N/A,,Clear,0,2013-01-31 00:16:00
4:26 PM,37.4,37.4,100,30.16,10.0,South,3.5,-,N/A,,Clear,180,2013-01-31 00:26:00
4:58 PM,33.8,33.8,100,30.24,10.0,SW,4.6,-,0.00,,Clear,230,2013-01-31 00:58:00
5:37 PM,35.6,35.6,100,30.17,10.0,East,4.6,-,N/A,,Clear,80,2013-01-31 01:37:00
5:58 PM,33.4,33.4,100,30.25,10.0,South,6.9,-,0.00,,Clear,170,2013-01-31 01:58:00
6:01 PM,32.0,32.0,100,30.18,10.0,Variable,1.2,-,N/A,,Clear,0,2013-01-31 02:01:00
6:08 PM,32.0,32.0,100,30.17,10.0,South,6.9,-,N/A,,Clear,190,2013-01-31 02:08:00
6:25 PM,32.0,32.0,100,30.18,10.0,SSW,5.8,-,N/A,,Clear,210,2013-01-31 02:25:00
6:58 PM,34.3,34.3,100,30.26,10.0,East,1.2,-,0.00,,Overcast,80,2013-01-31 02:58:00
7:15 PM,32.0,32.0,100,30.18,10.0,SSW,4.6,-,N/A,,Overcast,200,2013-01-31 03:15:00
7:45 PM,32.0,32.0,100,30.18,10.0,SSE,1.2,-,N/A,,Mostly Cloudy,150,2013-01-31 03:45:00
7:46 PM,32.0,32.0,100,30.18,10.0,SSE,1.2,-,N/A,,Mostly Cloudy,150,2013-01-31 03:46:00
7:58 PM,33.8,33.8,100,30.25,4.0,SSW,3.5,-,0.00,,Overcast,200,2013-01-31 03:58:00
8:00 PM,33.8,33.8,100,30.18,3.0,SSW,3.5,-,N/A,,Overcast,210,2013-01-31 04:00:00
8:05 PM,33.8,33.8,100,30.18,2.5,SW,3.5,-,N/A,,Overcast,220,2013-01-31 04:05:00
8:10 PM,33.8,33.8,100,30.18,1.8,SW,3.5,-,N/A,,Overcast,220,2013-01-31 04:10:00
8:15 PM,33.8,33.8,100,30.18,1.2,SSW,5.8,-,N/A,,Overcast,200,2013-01-31 04:15:00
8:20 PM,33.8,33.8,100,30.18,1.0,SSW,6.9,-,N/A,,Overcast,200,2013-01-31 04:20:00
8:25 PM,33.8,33.8,100,30.18,1.8,SSW,5.8,-,N/A,,Overcast,200,2013-01-31 04:25:00
8:30 PM,32.0,32.0,100,30.18,5.0,South,5.8,-,N/A,,Overcast,190,2013-01-31 04:30:00
8:48 PM,33.8,33.8,100,30.18,10.0,South,8.1,-,N/A,,Mostly Cloudy,170,2013-01-31 04:48:00
8:58 PM,33.6,33.6,100,30.26,9.0,South,11.5,-,0.00,,Partly Cloudy,190,2013-01-31 04:58:00
9:00 PM,32.0,32.0,100,30.18,7.0,South,11.5,-,N/A,,Partly Cloudy,190,2013-01-31 05:00:00
9:05 PM,33.8,33.8,100,30.17,2.5,SSW,12.7,-,N/A,,Partly Cloudy,200,2013-01-31 05:05:00
9:10 PM,32.0,32.0,100,30.17,1.0,SSW,13.8,-,N/A,,Clear,200,2013-01-31 05:10:00
9:13 PM,32.0,32.0,100,30.17,1.0,SSW,15.0,-,N/A,,Clear,200,2013-01-31 05:13:00
9:15 PM,32.0,32.0,100,30.17,0.8,SSW,16.1,-,N/A,,Mist,200,2013-01-31 05:15:00
9:19 PM,32.0,32.0,100,30.17,0.8,SSW,16.1,-,N/A,,Mist,210,2013-01-31 05:19:00
9:24 PM,32.0,32.0,100,30.17,0.8,SSW,13.8,-,N/A,,Mist,210,2013-01-31 05:24:00
9:29 PM,32.0,32.0,100,30.17,0.8,SSW,12.7,-,N/A,,Clear,210,2013-01-31 05:29:00
9:30 PM,32.0,32.0,100,30.17,0.8,SSW,12.7,-,N/A,,Clear,210,2013-01-31 05:30:00
9:40 PM,32.0,32.0,100,30.17,1.0,SSW,11.5,-,N/A,,Partly Cloudy,200,2013-01-31 05:40:00
9:41 PM,32.0,32.0,100,30.18,1.0,SSW,10.4,-,N/A,,Partly Cloudy,200,2013-01-31 05:41:00
9:46 PM,32.0,32.0,100,30.18,1.2,SSW,8.1,-,N/A,,Scattered Clouds,200,2013-01-31 05:46:00
9:51 PM,32.0,32.0,100,30.18,1.0,South,5.8,-,N/A,,Scattered Clouds,190,2013-01-31 05:51:00
9:56 PM,32.0,32.0,100,30.18,7.0,South,12.7,-,N/A,,Partly Cloudy,180,2013-01-31 05:56:00
9:58 PM,32.0,32.0,100,30.26,8.0,South,12.7,-,0.00,,Partly Cloudy,190,2013-01-31 05:58:00
9:59 PM,32.0,32.0,100,30.18,10.0,South,12.7,-,N/A,,Partly Cloudy,190,2013-01-31 05:59:00
10:05 PM,32.0,32.0,100,30.18,0.8,SSE,6.9,-,N/A,,Mist,160,2013-01-31 06:05:00
10:10 PM,32.0,32.0,100,30.18,0.5,SSE,6.9,-,N/A,Fog,Fog,160,2013-01-31 06:10:00
10:15 PM,32.0,32.0,100,30.18,0.5,South,6.9,-,N/A,Fog,Light Freezing Fog,170,2013-01-31 06:15:00
10:25 PM,32.0,32.0,100,30.17,0.5,South,6.9,-,N/A,Fog,Fog,180,2013-01-31 06:25:00
10:45 PM,32.0,32.0,100,30.17,0.5,SSW,8.1,-,N/A,Fog,Fog,200,2013-01-31 06:45:00
10:58 PM,32.5,32.5,100,30.25,0.5,SSW,9.2,-,0.00,Fog,Fog,200,2013-01-31 06:58:00
10:59 PM,32.0,32.0,100,30.17,0.5,SSW,9.2,-,N/A,Fog,Fog,200,2013-01-31 06:59:00
11:09 PM,32.0,32.0,100,30.18,0.8,SSW,8.1,-,N/A,,Mist,200,2013-01-31 07:09:00
11:14 PM,32.0,32.0,100,30.18,0.8,SSW,9.2,-,N/A,,Mist,200,2013-01-31 07:14:00
11:17 PM,32.0,32.0,100,30.18,0.8,South,8.1,-,N/A,,Mist,190,2013-01-31 07:17:00
11:27 PM,32.0,32.0,100,30.19,0.5,SSW,8.1,-,N/A,Fog,Fog,200,2013-01-31 07:27:00
11:32 PM,32.0,32.0,100,30.19,0.5,SSW,6.9,-,N/A,Fog,Fog,200,2013-01-31 07:32:00
11:42 PM,32.0,32.0,100,30.20,0.8,SSW,5.8,-,N/A,,Overcast,200,2013-01-31 07:42:00
11:47 PM,32.0,32.0,100,30.20,1.2,SSW,8.1,-,N/A,,Overcast,200,2013-01-31 07:47:00
11:52 PM,32.0,32.0,100,30.20,2.0,SSW,6.9,-,N/A,,Overcast,210,2013-01-31 07:52:00
11:58 PM,32.5,32.5,100,30.27,2.5,SSW,6.9,-,0.00,,Overcast,210,2013-01-31 07:58:00